Regional Weather Roundup
Issued by NWS

Home | Current Version | Previous Version | Text Only | Print | Product List | Glossary On
Versions: 1 2 3 4 5 6 7 8 9 10 11 12 13 14 15 16 17 18 19 20 21 22 23 24 25 26 27 28 29 30 31 32 33 34 35 36 37 38 39 40 41 42 43 44 45 46 47 48 49
000
ASUS42 KFFC 050203
RWRGA
WEATHER ROUNDUP FOR GEORGIA
NATIONAL WEATHER SERVICE PEACHTREE CITY GA
900 PM EST WED MAR 04 2015

NOTE: "FAIR" INDICATES FEW OR NO CLOUDS BELOW 12,000 FEET WITH NO
SIGNIFICANT WEATHER AND/OR OBSTRUCTIONS TO VISIBILITY.

* = USE WITH CAUTION. THE STATIONS MARKED WITH AN ASTERISK MAY NOT
REPORT WEATHER SUCH AS PRECIPITATION, FOG, OR THUNDER AND ARE NOT
QUALITY CONTROLLED BY NWS.

THE REMARK "TC" DENOTES TEMPERATURE READING IN DEGREES CELSIUS.

GAZ001>058-050300-
NORTH GEORGIA

CITY           SKY/WX    TMP DP  RH WIND       PRES   REMARKS
ATLANTA        MOCLDY    68  60  75 S9        29.93S
ATHENS         CLEAR     66  59  78 SW8       29.92F
CHAMBLEE       MOCLDY    67  60  78 S9        29.92S
PEACHTREE CITY PTCLDY    69  61  75 VRB5      29.94S
ROME           LGT RAIN  66  60  81 SW9G22    29.89R
WEST ATLANTA   MOCLDY    68  60  75 SW8       29.92S
GAINESVILLE    PTCLDY    66  58  75 S12G18    29.93R
CARTERSVILLE   LGT RAIN  68  60  75 S8        29.91R


CITY           SKY/WX    TMP DP  RH WIND       PRES   REMARKS
DALTON*        CLOUDY    63  63 100 CALM      29.87S
LAWRENCEVILLE* CLEAR     66  55  68 W9        29.92S
MARIETTA       MOCLDY    67  62  81 S8        29.92S
KENNESAW*      MOCLDY    68  61  77 S9G17     29.93S
$$

GAZ059>098-102>109-050300-
CENTRAL GEORGIA

CITY           SKY/WX    TMP DP  RH WIND       PRES   REMARKS
AUGUSTA-BUSH   MOCLDY    67  57  70 S6        29.96R
AUGUSTA-DANIEL MOCLDY    72  59  63 S8        29.97R
COLUMBUS       CLEAR     68  61  78 SW7       29.95R
MACON          CLEAR     68  61  78 S5        29.96S
ROBINS AFB     CLEAR     69  61  75 S9        29.95S


CITY           SKY/WX    TMP DP  RH WIND       PRES   REMARKS
LAGRANGE*      MOCLDY    73  66  81 SW8       29.94S
SYLVANIA*      CLEAR     68  61  79 S3        30.01R
MILLEDGEVILLE* CLEAR     64  63  94 CALM      29.95S
$$

GAZ099>101-110>166-050300-
SOUTH GEORGIA

CITY           SKY/WX    TMP DP  RH WIND       PRES   REMARKS
SAVANNAH       PTCLDY    67  61  81 S9        30.02R
VALDOSTA       MOCLDY    70  66  87 S5        30.05S
ALMA           CLEAR     70  60  70 S7        30.03R
ST SIMONS      CLEAR     60  58  92 S9        30.05R
FT STEWART     CLEAR     69  62  79 S6        30.00R
ALBANY         CLEAR     70  63  78 S12       30.02R
HUNTER AFB     CLEAR     65  63  91 S7        30.00R
MOODY AFB      MOCLDY    70  64  82 S12       30.04R
BRUNSWICK      CLEAR     64  59  82 CALM      30.06R


CITY           SKY/WX    TMP DP  RH WIND       PRES   REMARKS
BAINBRIDGE*    CLEAR     73  70  88 S6        30.02R
MOULTRIE*      PTCLDY    68  68 100 S6        30.04S
VIDALIA*       CLEAR     70  61  73 SW7       30.01R
WAYCROSS*      CLEAR     72  65  77 SW6       30.05R
DOUGLAS*       CLEAR     72  61  68 SW8       30.05R
$$


USA.gov is the U.S. government's official web portal to all federal, state and local government web resources and services.